STARLINK-32789, 62529

Orbit data source: Space-Track

STARLINK-32789, 62529 is a payload satellite owned by SpaceX/Seattle (US) in LEO that was launched on Wed, 08 Jan 2025 UTC via an FALCON 9 launch vehicle from the Air Force Eastern Test Range (AFETR). Payload-class satellites include a variety of spacecraft equipped with specific instruments for various scientific and technological missions. These include communications satellites like Starlink; space stations such as the ISS; scientific satellites like the Hubble; Earth observation satellites from companies like Planet Labs, Umbra, and HawkEye 360; GPS; miniature CubeSats for education and research; and military/defense satellites.

Loading next visibility...
Identifier
62529, 2025-004U
Orbit
LEO
Country
Flag of USUS
Related business
Manufacturer
SpaceX/Seattle
Mission
Operational Commercial Communications
Bus & Motor
STARLINK V2M, Unknown motor
Mass
730 kg wet, ~700 kg dry
Launch date (UTC)
2025-01-08 (11 months ago)
Launch vehicle
FALCON 9
Launch site
Air Force Eastern Test Range (AFETR)
Object type
Payload
Rocket body
Debris
Shape & HBR
Box + 2 Pan, 17.7 m
Radar Cross Section
33.884 m², Large (>1 m²)

Expand to show TLE details & history
Last TLE update: 15 hours ago

TLE from 15 hours ago
0 STARLINK-32789
1 62529U 25004U   25341.14374773  .00053736  00000-0  19478-2 0  9991
2 62529  42.9993  22.6298 0001315 251.0647 109.0062 15.27584327 52308
Epoch: 2025-12-07T03:26Z
TLE epoch observation values (Epoch: 2025-12-07T03:26:59.803Z)
Latitude
-0.00005°
Longitude
-105.28079°
Altitude
483.105 km
Speed
7.626 km/s
True Right ascension
01h 30m 31s
True Declination
0° 00' 00"
Sunlit
Object was in full shadow at epoch
Visualization orbit readout
Latitude
Unknown
Longitude
Unknown
Altitude
Unknown
Speed
Unknown
Apparent Right ascension
Unknown
Apparent Declination
Unknown
Sunlit
N/A
Visualization observer readout
Local Sidereal Time
16:44:25
Azimuth
Unknown
Elevation
Unknown
Doppler factor
Unknown
Orbital elements
Apogee altitude
485.884 km
Perigee altitude
484.079 km
Semi-major axis
6,863.118 km
Eccentricity
0.00013
Inclination
42.9993°
RAAN
22.6298°
Arg. of periapsis
251.0647°
True anomaly
109.02045°
Mean anomaly
109.0062°
Eccentric anomaly
109.01332°
Mean motion
3.81734 °/min
Orbital period
94.31 mins
BSTAR
0.0019478
Loading maneuver chart data...
Computing Atmospheric mass density...
Loading historical data...
Loading historical data...
Loading historical data...
Loading historical data...
Loading historical data...
Loading historical data...
Loading historical data...

Documentation

Showing up to 5 results
|